TimeCST,TemperatureF,Dew PointF,Humidity,Sea Level PressureIn,VisibilityMPH,Wind Direction,Wind SpeedMPH,Gust SpeedMPH,PrecipitationIn,Events,Conditions,WindDirDegrees,DateUTC
12:53 AM,55.9,48.0,75,30.20,10.0,ESE,4.6,-,N/A,,Clear,110,2013-03-07 06:53:00
1:53 AM,55.9,48.9,77,30.17,10.0,East,3.5,-,N/A,,Clear,100,2013-03-07 07:53:00
2:53 AM,55.9,48.9,77,30.15,10.0,ENE,3.5,-,N/A,,Clear,70,2013-03-07 08:53:00
3:53 AM,55.0,48.9,80,30.13,10.0,Calm,Calm,-,N/A,,Clear,0,2013-03-07 09:53:00
4:49 AM,55.4,50.0,82,30.13,10.0,ENE,4.6,-,N/A,,Mostly Cloudy,70,2013-03-07 10:49:00
4:53 AM,55.9,50.0,80,30.12,10.0,East,4.6,-,N/A,,Mostly Cloudy,80,2013-03-07 10:53:00
5:13 AM,57.2,51.8,82,30.12,10.0,ENE,6.9,-,N/A,,Partly Cloudy,70,2013-03-07 11:13:00
5:53 AM,55.9,51.1,84,30.12,10.0,East,6.9,-,N/A,,Clear,80,2013-03-07 11:53:00
6:53 AM,59.0,53.1,81,30.14,10.0,ENE,8.1,-,N/A,,Partly Cloudy,70,2013-03-07 12:53:00
7:53 AM,62.1,55.0,78,30.15,10.0,East,10.4,-,N/A,,Clear,80,2013-03-07 13:53:00
8:53 AM,66.0,57.0,73,30.16,10.0,East,9.2,19.6,N/A,,Mostly Cloudy,100,2013-03-07 14:53:00
9:27 AM,69.8,59.0,68,30.17,10.0,ESE,11.5,-,N/A,,Mostly Cloudy,120,2013-03-07 15:27:00
9:53 AM,71.1,59.0,66,30.16,10.0,ESE,13.8,21.9,N/A,,Mostly Cloudy,110,2013-03-07 15:53:00
10:20 AM,73.4,60.8,65,30.17,10.0,SE,15.0,23.0,N/A,,Mostly Cloudy,130,2013-03-07 16:20:00
10:33 AM,73.4,60.8,65,30.17,10.0,ESE,13.8,-,N/A,,Mostly Cloudy,110,2013-03-07 16:33:00
10:53 AM,75.9,57.9,54,30.15,10.0,ESE,16.1,23.0,N/A,,Scattered Clouds,120,2013-03-07 16:53:00
11:53 AM,78.1,57.0,48,30.13,10.0,SE,13.8,24.2,N/A,,Scattered Clouds,140,2013-03-07 17:53:00
12:53 PM,80.1,57.9,47,30.10,10.0,SE,17.3,26.5,N/A,,Overcast,130,2013-03-07 18:53:00
1:53 PM,79.0,57.9,48,30.07,10.0,ESE,19.6,29.9,N/A,,Mostly Cloudy,120,2013-03-07 19:53:00
2:53 PM,79.0,60.1,52,30.05,10.0,ESE,18.4,27.6,N/A,,Overcast,110,2013-03-07 20:53:00
3:53 PM,78.1,60.1,54,30.05,10.0,ESE,19.6,-,N/A,,Mostly Cloudy,120,2013-03-07 21:53:00
4:53 PM,75.9,60.1,58,30.06,10.0,SE,18.4,28.8,N/A,,Mostly Cloudy,130,2013-03-07 22:53:00
5:53 PM,73.0,61.0,66,30.06,10.0,ESE,18.4,27.6,N/A,,Mostly Cloudy,120,2013-03-07 23:53:00
6:53 PM,72.0,62.1,71,30.07,10.0,ESE,17.3,25.3,N/A,,Scattered Clouds,120,2013-03-08 00:53:00
7:53 PM,71.1,62.1,73,30.08,10.0,ESE,17.3,23.0,N/A,,Partly Cloudy,120,2013-03-08 01:53:00
8:31 PM,71.6,62.6,73,30.09,10.0,SE,17.3,-,N/A,,Mostly Cloudy,130,2013-03-08 02:31:00
8:53 PM,71.1,63.0,75,30.10,10.0,SE,17.3,-,N/A,,Overcast,130,2013-03-08 02:53:00
9:53 PM,70.0,63.0,78,30.10,10.0,SE,15.0,-,N/A,,Overcast,130,2013-03-08 03:53:00
10:53 PM,69.1,63.0,81,30.11,10.0,SE,15.0,-,N/A,,Mostly Cloudy,130,2013-03-08 04:53:00
11:53 PM,69.1,63.0,81,30.09,10.0,ESE,13.8,-,N/A,,Overcast,120,2013-03-08 05:53:00